Tracking 19634 objects as of 21-May-2019
HD Live streaming from Space Station
objects crossing your sky now

H-2A R/B

Track H-2A R/B now!
10-day predictions


NORAD ID: 43682
Int'l Code: 2018-084L
Perigee: 526.1 km
Apogee: 605.9 km
Inclination: 98.9 °
Period: 95.8 minutes
Semi major axis: 6936 km
RCS: Unknown
Launch date: October 29, 2018
Source: Japan (JPN)
Launch site: TANEGASHIMA SPACE CENTER (TNSTA)

Note: This is a ROCKET BODY
aabbcc
Your satellite tracking list
Your tracking list is empty




NASA's NSSDC Master Catalog

Two Line Element Set (TLE):
1 43682U 18084L   19140.86510864  .00000495  00000-0  42037-4 0  9995
2 43682  98.8776 285.0219 0057466 342.8586  17.0692 15.02606657 30546
Source of the keplerian elements: AFSPC